EW9280 Weather Reports


time (UTC)temp
C
wind
direction
speed
KPH
gust
KPH
rain 1hr
cm
rain 24hr
cm
rain mn
cm
humidity
%
barometer
mb
20260504174525 21 135 0.0 9.7 0.00 0.00 0.00 43 1011.6
20260504173022 20 145 1.6 4.8 0.00 0.00 0.00 55 1012.0
20260504171520 20 158 1.6 4.8 0.00 0.00 0.00 50 1012.2
20260504081557 12 125 8.0 14.5 0.00 0.00 0.00 74 1014.9
20260504044524 12 123 1.6 6.4 0.00 0.00 0.00 73 1015.3
20260504043024 11 123 1.6 6.4 0.00 0.00 0.00 74 1015.1
20260504041519 11 130 1.6 8.0 0.00 0.00 0.00 75 1015.3
20260504040017 11 124 3.2 6.4 0.00 0.00 0.00 74 1015.1
20260504034516 11 130 1.6 6.4 0.00 0.00 0.00 78 1015.1
20260504033016 11 130 3.2 4.8 0.00 0.00 0.00 78 1015.0
20260504031515 11 130 3.2 6.4 0.00 0.00 0.00 76 1014.9
20260504030016 11 130 3.2 6.4 0.00 0.00 0.00 74 1014.9
20260504024513 11 134 1.6 6.4 0.00 0.00 0.00 73 1014.9
20260504023013 10 130 1.6 6.4 0.00 0.00 0.00 77 1014.9
20260504021512 9 128 0.0 0.0 0.00 0.00 0.00 78 1014.9
20260504020010 8 128 0.0 0.0 0.00 0.00 0.00 73 1014.8
20260504014510 9 128 0.0 0.0 0.00 0.00 0.00 75 1014.7
20260504013011 9 128 0.0 0.0 0.00 0.00 0.00 72 1014.7
20260504011508 10 128 0.0 0.0 0.00 0.00 0.00 72 1014.6
20260504010006 10 128 0.0 0.0 0.00 0.00 0.00 69 1014.5
20260504004517 11 128 0.0 0.0 0.00 0.00 0.00 67 1014.3
20260504003005 11 128 0.0 0.0 0.00 0.00 0.00 66 1014.2
20260504001514 12 128 0.0 0.0 0.00 0.00 0.00 62 1013.9
20260504000003 12 128 0.0 0.0 0.00 0.00 0.00 53 1013.8
20260503234503 13 128 0.0 0.0 0.00 0.00 0.00 50 1013.6
20260503233004 14 128 0.0 0.0 0.00 0.00 0.00 48 1013.6
20260503231502 15 128 0.0 0.0 0.00 0.00 0.00 47 1013.5
20260503230002 15 128 0.0 1.6 0.00 0.00 0.00 47 1013.4
20260503224501 15 128 0.0 3.2 0.00 0.00 0.00 44 1013.5
20260503223006 16 329 0.0 3.2 0.00 0.00 0.00 42 1013.4
20260503221600 16 337 0.0 6.4 0.00 0.00 0.00 40 1013.6
20260503220100 17 121 1.6 3.2 0.00 0.00 0.00 37 1013.6
20260503214600 17 173 0.0 3.2 0.00 0.00 0.00 39 1013.5
20260503213057 17 247 1.6 4.8 0.00 0.00 0.00 37 1013.6
20260503211556 17 342 1.6 6.4 0.00 0.00 0.00 38 1013.5
20260503210055 17 134 1.6 6.4 0.00 0.00 0.00 41 1013.5
20260503204554 16 175 0.0 8.0 0.00 0.00 0.00 39 1013.4
20260503203051 16 310 0.0 8.0 0.00 0.00 0.00 40 1013.5
20260503201551 16 69 1.6 9.7 0.00 0.00 0.00 41 1013.5
20260503200047 16 70 3.2 12.9 0.00 0.00 0.00 39 1013.7
20260503194559 16 302 1.6 4.8 0.00 0.00 0.00 39 1014.1
20260503193044 15 134 3.2 6.4 0.00 0.00 0.00 40 1014.3
20260503191542 15 32 3.2 12.9 0.00 0.00 0.00 40 1014.5
20260503190044 15 11 1.6 8.0 0.00 0.00 0.00 39 1014.6
20260503184542 15 26 3.2 8.0 0.00 0.00 0.00 39 1014.7
20260503183041 15 329 1.6 9.7 0.00 0.00 0.00 38 1014.9
20260503181553 14 355 1.6 6.4 0.00 0.00 0.00 39 1014.9
20260503180041 13 28 1.6 9.7 0.00 0.00 0.00 40 1015.1